Regional Weather Roundup
Issued by NWS

Home | Current Version | Previous Version | Graphics & Text | Print | Product List | Glossary On
Versions: 1 2 3 4 5 6 7 8 9 10 11 12 13 14 15 16 17 18 19 20 21 22 23 24 25 26 27 28
000
ASUS45 KCYS 250110
RWRWY

WYOMING REGIONAL WEATHER ROUNDUP
NATIONAL WEATHER SERVICE CHEYENNE WY
700 PM MDT FRI OCT 24 2014

NOTE:  "FAIR" INDICATES FEW OR NO CLOUDS BELOW 12,000 FEET
WITH NO SIGNIFICANT WEATHER AND/OR OBSTRUCTIONS TO VISIBILITY.

WYZ001-250200-
YELLOWSTONE NATIONAL PARK

CITY           SKY/WX    TMP DP  RH WIND       PRES   REMARKS
LK YELLOWSTONE   N/A     44  24  45 W3        30.26R
W YELLOWSTONE  NOT AVBL

$$
WYZ002>013-054>058-071-098>099-250200-
NORTHERN WYOMING

CITY           SKY/WX    TMP DP  RH WIND       PRES   REMARKS
JACKSON        CLEAR     54  27  35 S9        30.19R
CODY           PTCLDY    52  37  58 NE9       30.09R
GREYBULL       CLEAR     62  32  32 NW12      30.00R
WORLAND        CLEAR     57  28  33 E5        30.00R
SHERIDAN       PTCLDY    48  33  56 NW7       30.10R
BUFFALO        CLEAR     54  32  43 N7        30.12R
GILLETTE       CLEAR     52  33  48 NE8       30.09R
HULETT         CLOUDY    55  32  41 NE7       30.12
NEWCASTLE      FAIR      55  30  38 N7        30.06R

$$
WYZ014>020-022>026-101>103-250200-
CENTRAL WYOMING

CITY           SKY/WX    TMP DP  RH WIND       PRES   REMARKS
BIG PINEY      CLEAR     48  21  34 SW5       30.25R
PINEDALE       CLEAR     50  23  34 W5        30.26R
DUBOIS         FAIR      52  18  25 NW13      30.20R
LANDER         CLEAR     64  18  17 SW12      30.09R
RIVERTON       CLEAR     63  19  18 W7        30.09R
CASPER         CLEAR     57  20  23 SW7       30.11R
DOUGLAS        CLEAR     62  20  19 SW8       30.10R

$$
WYZ021-027>030-104>119-250200-
SOUTHERN WYOMING

CITY           SKY/WX    TMP DP  RH WIND       PRES   REMARKS
EVANSTON       CLEAR     57  25  29 SW8       30.26R
KEMMERER       CLEAR     52  23  32 W7        30.27R
FORT BRIDGER   FAIR      59  24  26 W8        30.27S
ROCK SPRINGS   CLEAR     59  23  25 S7        30.24R
RAWLINS        CLEAR     57  26  30 W10       30.25R
SARATOGA       FAIR      52  27  37 SW8       30.29R
LARAMIE        CLEAR     54  20  26 SW7       30.28R
CHEYENNE       CLEAR     60  27  28 SW9       30.22R
TORRINGTON     CLEAR     71  25  17 NW14      30.05R
PINE BLUFFS    FAIR      55  30  38 CALM      30.16R

$$



USA.gov is the U.S. government's official web portal to all federal, state and local government web resources and services.